CAPE
48 16 0 0 0 0 0 0 0 0 0 0 0 0 0 0 0 0 0 0 0 0 34 373 137 47 0 0 0 0 0 0 0 0 0 0 0 0 0 1 2 2 4
52 33 0 0 0 0 0 0 0 15 13 1 0 0 0 0 0 0 0 0 0 0 0 186 377 138 80 14 10 5 3 2 0 0 1 0 0 0 0 0 0 0 1
64 37 9 0 0 0 0 0 0 0 17 20 19 16 4 1 0 0 0 0 0 0 0 0 88 153 118 76 44 27 9 6 6 1 0 4 1 0 0 0 0 0 0
98 102 50 41 43 39 11 10 4 25 39 35 36 31 25 26 30 35 42 28 0 0 0 0 3 78 121 126 116 79 55 1 0 0 0 0 0 1 0 0 0 0 3
193 193 219 183 154 175 153 132 116 129 129 124 23 142 145 154 135 113 98 121 82 15 0 0 0 25 179 262 147 164 158 129 17 0 0 0 0 1 2 0 0 0 0
264 264 276 276 278 296 156 135 130 164 170 184 49 124 197 171 180 201 123 38 45 81 6 0 0 0 0 35 123 205 166 181 159 53 10 5 2 1 1 1 2 2 1
404 415 434 365 254 238 236 218 221 101 141 391 212 198 165 151 151 75 11 0 6 1 0 0 0 0 0 0 102 113 238 239 206 212 166 61 20 5 2 1 2 3 2
486 447 444 384 356 380 299 309 191 214 216 293 137 144 68 2 0 55 1 0 0 0 0 0 0 0 0 0 0 59 99 228 265 254 267 305 145 32 17 8 4 5 10
535 491 412 347 411 436 419 349 200 181 117 51 59 61 67 33 26 10 8 0 0 0 0 0 0 0 0 0 0 0 0 0 17 212 290 260 312 281 115 56 22 11 10
0 0 7 26 94 32 2 2 3 11 28 40 8 4 25 7 24 23 24 3 0 0 0 0 0 0 0 0 0 0 0 0 0 2 25 154 221 256 243 166 107 31 18
0 0 0 0 0 0 0 0 1 4 9 11 23 19 8 21 14 24 11 16 41 0 0 0 0 0 0 0 0 0 0 0 0 0 0 6 40 156 146 372 483 91 40
0 0 0 0 0 0 0 0 2 4 4 1 6 11 18 23 1 0 3 8 36 16 2 3 0 0 0 0 0 0 0 0 0 0 3 12 30 80 32 102 311 196 149
0 0 0 0 0 0 0 0 1 5 3 3 8 12 19 17 23 1 1 1 0 3 1 2 0 0 0 0 0 0 0 0 0 0 2 8 5 4 5 5 22 189 390
0 0 0 0 0 0 0 0 0 8 17 41 43 44 47 36 14 0 0 1 1 0 0 0 0 0 0 0 0 0 0 0 0 2 2 1 1 0 1 1 0 31 0
0 0 0 0 0 0 0 0 3 10 15 4 1 0 0 0 0 0 0 0 10 0 6 0 0 0 0 0 0 0 0 2 1 2 4 5 0 0 1 10 17 3 0
0 0 0 0 0 0 0 0 2 0 1 0 0 0 0 0 0 0 0 0 0 0 1 0 0 0 0 0 0 1 0 2 1 10 15 11 9 12 18 14 7 9 6
0 0 0 0 0 0 0 0 0 0 0 0 0 0 0 0 0 0 0 0 1 2 5 1 0 0 0 0 0 1 1 1 3 3 8 6 3 4 6 7 6 5 4
0 0 0 0 0 0 0 0 0 0 0 0 0 0 0 0 0 0 2 1 1 0 0 1 0 3 0 1 1 1 0 0 2 0 2 3 3 3 3 2 1 0 0
0 0 0 0 0 0 0 0 0 0 0 0 0 0 0 0 0 0 0 1 0 0 2 0 1 3 1 0 0 0 1 1 1 0 0 1 1 1 0 0 0 0 0
0 0 0 0 0 0 0 0 0 0 0 0 0 0 0 0 1 1 1 1 0 0 0 3 1 1 0 0 0 1 0 0 0 0 0 0 0 0 0 0 0 0 0
0 0 0 0 1 0 0 1 0 0 0 0 0 0 1 2 0 0 0 0 0 0 0 2 3 2 0 0 0 0 0 0 0 0 0 0 0 0 0 0 0 0 0
0 0 0 0 2 1 1 1 0 0 0 0 0 0 0 0 0 0 2 0 0 0 0 0 0 0 0 0 0 0 0 0 0 0 0 0 0 0 0 0 0 0 0
0 0 0 0 2 1 4 1 0 0 1 2 1 0 0 0 0 0 0 0 0 0 0 0 0 0 0 0 0 0 0 0 0 0 0 0 0 0 0 0 0 0 0
1 0 0 1 3 2 1 0 0 0 0 0 0 0 0 0 0 0 0 0 0 0 0 0 0 0 0 0 0 0 0 0 0 0 0 0 0 0 0 0 0 0 0
0 0 0 0 0 1 1 0 0 0 0 0 0 0 0 0 0 0 0 0 0 0 0 0 0 0 0 0 0 0 0 0 0 0 0 0 0 0 0 0 0 0 0
0 0 1 0 0 2 0 0 0 0 0 0 0 0 0 0 0 0 0 0 0 0 0 0 0 0 0 0 0 0 0 0 0 0 0 0 0 0 0 0 0 0 0
CIN
-146 -181 0 0 0 0 0 0 0 0 0 0 0 0 0 0 0 0 0 0 0 0 -26 -2 -24 -61 0 0 0 0 0 0 0 0 0 0 0 0 0 0 0 0 0
-100 -112 0 0 0 0 0 0 0 -62 -49 0 0 0 0 0 0 0 0 0 0 0 0 -11 0 -7 -26 -2 -4 -2 -2 0 0 0 0 0 0 0 0 0 0 0 0
-100 -104 -67 0 0 0 0 0 0 0 -49 -43 -35 -20 0 -1 0 0 0 0 0 0 0 0 -22 0 0 -10 -33 -60 -10 -9 -4 0 0 0 0 0 0 0 0 0 0
-88 -67 -76 -64 -46 -40 -7 -7 -5 -32 -30 -20 -14 -9 -3 -8 -12 -12 -13 -29 0 0 0 0 -11 -26 -4 0 0 -7 -21 0 0 0 0 0 0 0 0 0 0 0 0
-49 -45 -25 -24 -15 -9 -7 -7 -5 -5 -4 -1 -7 -1 -1 -2 -3 -1 -2 -1 -1 -5 0 0 0 -38 -20 -1 0 0 0 -3 -48 0 0 0 0 0 0 0 0 0 0
-25 -22 -16 -7 -1 -1 -5 -6 -3 -3 -3 -4 -4 -2 -1 -2 -3 -3 -1 -8 -7 -1 -2 0 0 0 0 -55 -8 0 0 -2 0 -11 0 0 0 0 0 0 0 0 0
-6 -5 -2 -1 -5 -2 -3 -4 -2 -8 -6 0 0 0 -2 -5 -4 -6 -5 0 -2 -3 0 0 0 0 0 0 -21 -5 0 0 0 0 -8 -66 -59 0 0 0 0 0 0
-7 -4 -3 -3 -5 -4 -2 -2 -7 -3 -4 -4 -4 -2 -3 0 0 -7 -4 0 0 0 0 0 0 0 0 0 0 -23 -7 -1 0 -1 0 0 -7 0 0 0 0 0 0
-10 -14 -20 -24 -10 -9 -8 -12 -20 -15 -17 -10 -9 -3 -2 -1 -9 -32 -24 0 0 0 0 0 0 0 0 -31 0 0 0 0 -47 -10 0 0 0 -1 -1 0 -26 0 0
0 0 -17 -7 -35 -29 -4 0 0 0 -5 0 -7 -20 -14 -22 -12 -12 -7 -7 0 0 0 0 0 0 0 0 0 0 0 0 0 -100 -20 -28 -4 0 0 0 0 -16 -12
0 0 0 0 0 0 0 0 0 0 -3 -1 -1 -3 -5 0 -1 -1 -8 -12 -5 0 0 0 0 0 0 0 0 0 0 0 0 0 -5 -30 -8 -18 -16 0 0 -3 0
0 0 0 0 0 0 0 0 0 0 0 -2 -2 -3 0 -1 0 0 -20 -21 -9 -43 -46 -3 0 0 0 0 0 0 0 0 0 0 -27 -15 -4 0 0 -1 0 0 -1
0 0 0 0 0 0 0 0 0 0 -1 -5 -5 -4 -6 -5 -8 -9 -19 -29 -2 -37 -10 -1 0 0 0 0 0 0 0 0 0 0 0 0 0 0 0 0 -14 -3 0
0 0 0 0 0 0 0 0 0 0 -1 -1 0 0 0 -2 -7 0 0 -48 0 0 0 0 0 0 0 0 0 0 -4 0 0 0 0 0 0 0 0 0 -2 -4 0
0 0 0 0 0 0 0 0 0 -1 -1 0 0 0 0 0 0 0 0 0 -36 -2 -1 0 0 0 0 0 0 0 0 0 0 0 0 0 0 0 0 -1 0 0 0
0 0 0 0 0 0 0 0 -1 -3 -4 0 0 0 0 0 0 0 0 0 0 0 -1 0 0 0 0 0 0 0 0 0 0 0 0 0 0 0 0 -1 0 0 0
0 0 0 0 0 0 0 0 0 0 0 0 0 0 0 0 0 0 0 0 0 0 -1 0 0 0 0 0 0 0 0 0 0 0 0 0 0 0 0 0 0 0 0
0 0 0 0 0 0 0 0 0 0 0 0 0 0 0 0 0 0 0 0 0 0 0 -1 0 0 0 0 0 0 0 0 0 0 0 0 0 0 0 0 0 0 0
0 0 0 0 0 0 0 0 0 0 0 0 0 0 0 0 0 0 0 0 0 0 0 0 0 0 0 0 0 0 0 0 0 0 0 0 0 0 0 0 0 0 0
0 0 0 0 0 0 0 0 0 0 0 0 0 0 0 0 0 0 0 0 0 0 0 -1 0 0 0 0 0 0 -1 0 0 0 0 0 0 0 0 0 0 0 0
0 0 0 0 0 0 0 0 0 0 0 0 0 0 0 0 0 0 -1 0 0 0 -2 0 -2 -2 -1 -1 0 0 0 0 0 0 0 0 0 0 0 0 0 0 0
0 0 0 0 0 0 0 0 0 0 0 0 0 0 0 0 0 0 0 0 0 -1 0 0 0 -1 -1 0 0 0 0 0 0 0 0 0 0 0 0 0 0 0 0
0 0 0 0 0 0 0 0 0 0 0 0 0 0 0 0 0 0 0 0 0 0 0 0 0 0 0 0 0 0 0 0 0 0 0 0 0 0 0 0 0 0 0
0 0 0 0 0 0 0 0 0 0 0 0 0 0 0 0 0 0 0 0 0 0 0 0 0 0 0 0 0 0 0 0 0 0 0 0 0 0 0 0 0 0 0
0 0 0 -1 0 0 0 0 0 0 0 0 0 0 0 0 0 0 0 0 0 0 0 0 0 0 0 0 0 0 0 0 0 0 0 0 0 0 0 0 0 0 0
0 0 0 0 0 -2 0 0 0 0 0 0 0 0 0 0 0 0 0 0 0 0 0 0 0 0 0 0 0 0 0 0 0 0 0 0 0 0 0 0 0 0 0
Wind_Speed
4 4 4 4 4 4 4 4 4 4 5 5 5 5 6 6 6 3 3 8 5 6 7 10 9 7 5 4 3 2 2 1 2 2 2 2 3 3 4 5 5 6 6
4 4 4 4 4 4 4 5 5 4 4 5 5 6 6 5 6 6 4 3 9 8 9 10 10 9 9 9 9 7 6 4 3 4 3 2 2 2 2 2 3 3 5
6 5 5 4 4 4 6 5 5 5 5 5 7 6 6 6 6 6 5 5 4 9 11 12 12 12 12 10 11 11 11 11 9 6 6 5 4 2 1 1 1 2 2
7 6 5 5 5 4 5 5 5 5 6 6 6 6 6 6 8 8 7 6 5 5 9 12 13 14 14 14 14 13 13 14 13 13 10 8 7 6 5 3 2 1 0
8 7 5 5 6 5 5 6 6 6 6 6 6 6 6 6 7 6 9 8 8 5 4 6 12 12 12 15 15 15 15 15 15 14 14 13 12 10 9 7 6 5 4
7 7 6 7 6 5 6 7 8 6 6 5 6 7 6 6 6 7 8 7 6 6 4 6 4 7 13 15 17 17 17 15 15 16 15 14 13 12 12 11 9 8 7
7 7 6 6 5 7 8 8 7 6 5 6 5 6 7 9 8 6 5 6 6 2 4 4 4 4 4 13 13 15 18 18 15 15 18 18 16 16 15 14 13 12 11
7 7 7 7 4 4 9 8 8 6 5 3 2 4 3 6 6 5 2 3 4 4 2 3 4 4 3 3 3 10 12 17 18 17 16 18 20 20 19 17 16 14 14
5 4 4 4 4 3 4 4 3 3 4 2 4 3 3 4 3 3 4 3 4 3 1 2 3 3 3 4 4 6 9 8 11 16 18 17 18 19 20 19 18 17 16
3 3 4 5 4 3 3 4 4 4 4 6 1 3 5 1 3 3 2 3 2 3 3 1 1 2 3 2 2 6 10 10 10 12 15 18 18 17 18 21 23 20 19
2 1 3 3 4 3 4 5 5 6 4 5 6 4 5 5 7 5 5 3 2 1 1 1 1 1 4 4 5 9 10 9 10 10 12 15 17 20 17 18 20 22 21
3 2 1 3 3 4 5 4 5 5 6 7 7 6 7 4 4 3 5 5 3 3 2 0 4 4 4 4 8 8 9 10 10 11 12 13 13 15 16 14 19 26 25
3 3 2 3 3 4 5 5 5 5 7 7 8 6 6 6 4 1 2 2 4 3 1 3 4 4 3 5 7 10 8 12 12 13 13 14 15 14 14 14 16 15 21
1 1 3 4 4 5 6 6 5 5 6 5 6 6 5 3 3 4 3 4 2 3 2 2 3 4 4 4 8 9 5 12 12 14 15 13 12 12 12 11 9 7 7
1 2 3 4 4 5 6 6 5 5 1 2 3 3 2 2 3 3 2 0 2 3 5 2 3 4 3 3 6 5 7 9 11 14 18 15 9 8 9 2 9 14 15
2 2 3 4 4 5 4 4 4 2 2 2 1 3 2 2 3 2 2 1 1 0 2 3 4 3 2 2 5 6 6 6 9 13 14 17 20 14 13 15 15 13 14
2 3 2 3 3 4 4 3 2 1 1 1 2 2 3 2 2 2 2 2 1 1 3 1 2 1 1 5 5 5 4 4 3 11 11 12 13 13 14 13 11 10 8
1 3 3 3 3 3 4 3 0 1 1 1 2 3 3 2 4 2 1 2 1 3 3 2 3 3 3 4 4 4 3 3 4 8 8 8 9 9 9 8 7 5 3
3 2 3 3 2 2 2 3 1 2 3 5 4 4 4 3 4 4 4 4 3 3 2 2 2 2 1 4 3 3 3 3 2 3 4 4 6 8 5 4 5 7 7
3 3 1 2 2 2 1 1 1 3 5 6 6 6 7 6 5 4 4 3 2 1 1 2 2 1 1 1 1 2 2 1 2 4 1 1 2 1 2 3 3 4 4
2 0 1 1 2 2 1 2 4 4 5 7 7 7 8 9 11 7 4 3 3 2 2 0 0 1 1 1 2 2 3 3 1 3 4 3 1 3 1 1 1 2 7
2 3 3 2 2 1 5 4 4 5 5 6 6 5 5 7 6 6 8 10 6 3 2 2 1 2 3 3 1 3 3 3 2 3 4 4 2 3 3 3 7 8 9
3 3 2 3 1 2 5 6 5 5 5 3 3 3 4 3 4 2 5 4 7 7 7 4 3 3 3 4 2 4 4 3 3 4 4 4 3 4 2 3 4 7 8
4 3 2 3 3 3 5 7 8 5 5 4 3 3 4 3 2 2 2 1 3 3 4 3 4 5 4 4 1 1 3 3 4 2 2 2 2 3 3 3 3 3 7
4 3 2 3 3 4 7 7 6 4 4 4 3 3 1 3 4 3 2 0 2 3 3 2 2 3 2 3 4 3 2 2 3 1 2 2 3 4 4 2 2 3 6
4 4 3 3 4 2 7 7 5 3 3 3 3 3 1 3 2 1 4 2 2 1 1 2 2 3 3 3 1 3 2 1 2 2 3 2 4 3 4 1 1 3 2
Wind_Direction
185 204 200 199 211 218 231 231 238 248 241 251 253 251 264 273 272 273 285 167 197 246 255 232 223 209 213 219 244 239 262 312 320 320 330 3 14 19 33 35 41 51 47
212 216 211 216 222 225 232 237 245 236 251 245 257 260 261 260 263 272 262 235 196 219 242 245 247 236 224 216 213 218 214 233 263 271 269 279 306 333 0 19 34 56 68
219 225 244 224 219 225 236 243 255 258 265 266 263 264 264 269 271 256 252 256 222 207 222 237 241 245 242 237 234 225 209 203 208 239 242 245 248 251 275 331 53 64 89
217 224 227 232 243 231 232 240 244 250 251 260 267 267 256 240 258 264 266 255 239 255 203 220 227 239 246 249 248 243 225 217 211 205 221 226 229 225 227 214 207 149 241
216 218 229 229 230 234 242 243 249 253 264 268 274 273 277 281 271 266 261 255 250 232 255 223 211 221 237 247 253 251 246 228 220 218 216 215 216 220 221 216 204 193 183
222 229 234 240 247 241 246 251 253 257 258 265 273 278 275 266 268 263 270 285 284 258 251 255 221 218 219 233 244 251 257 249 236 224 222 224 225 220 220 219 214 208 202
230 233 247 250 245 253 259 258 261 253 252 262 274 268 259 252 243 258 273 268 265 260 250 253 247 259 244 216 229 243 255 261 257 242 232 225 223 225 221 220 217 211 209
241 248 248 254 257 259 263 267 268 266 274 276 253 293 281 269 260 220 254 311 299 299 248 256 267 275 278 297 252 228 250 263 267 267 255 243 234 224 220 220 219 217 215
261 298 317 322 302 309 272 295 345 304 251 238 221 231 277 248 347 132 204 221 266 268 295 357 304 332 335 330 340 8 23 345 304 287 279 271 261 245 229 222 218 215 218
259 266 262 246 235 231 244 258 261 245 238 249 227 245 243 134 263 298 238 269 252 317 255 128 311 344 42 24 4 26 14 346 319 301 292 286 282 271 247 223 225 212 212
213 224 267 281 276 282 284 281 272 257 258 260 249 247 216 233 229 230 264 269 243 137 229 285 291 28 45 39 35 42 11 356 345 329 313 301 290 286 268 256 228 220 219
181 197 285 280 295 283 282 280 277 270 261 260 260 263 253 221 218 205 227 231 247 300 339 159 58 50 53 51 65 8 22 18 2 352 333 318 313 347 353 291 251 221 217
201 213 284 285 290 297 290 285 283 266 269 259 248 242 245 251 236 185 151 185 217 230 237 57 65 64 59 38 55 358 55 27 14 1 346 332 332 338 341 331 325 286 240
291 14 292 294 297 299 293 289 281 274 274 282 288 293 261 252 197 178 194 161 200 224 207 247 81 71 50 32 28 339 62 27 23 10 348 323 314 321 320 310 322 36 55
309 313 302 308 307 303 298 289 282 287 1 341 36 21 57 36 59 34 348 192 188 178 210 162 130 78 46 41 21 17 27 26 30 26 23 7 328 307 308 310 114 110 92
262 283 299 304 306 298 294 285 273 336 332 24 42 120 90 88 77 64 83 98 59 319 224 14 72 66 57 78 60 31 21 28 21 33 29 33 40 53 69 83 91 93 101
279 282 297 300 309 311 309 294 266 285 178 138 81 86 81 74 84 73 39 39 67 257 242 98 91 64 68 27 32 12 17 14 3 20 15 26 36 41 46 54 65 77 85
264 310 301 291 304 324 320 331 339 328 208 113 79 81 66 58 77 65 116 98 73 31 335 241 51 37 26 8 20 3 1 9 1 10 1 10 21 29 40 48 47 45 38
240 245 285 291 296 343 338 3 13 81 84 70 44 58 52 71 72 61 38 51 40 32 33 38 109 60 51 37 359 359 345 11 344 344 359 1 360 18 18 20 53 53 50
227 220 267 323 334 324 13 68 49 81 80 76 66 50 53 58 69 63 77 63 60 56 58 91 76 107 37 62 313 349 322 186 53 0 288 128 341 248 18 9 39 32 14
189 181 171 227 268 254 216 148 126 121 113 100 90 78 64 69 69 53 60 53 52 43 13 337 23 230 299 267 341 315 308 346 118 36 335 326 1 340 150 235 165 54 345
164 165 174 182 216 196 150 144 144 129 123 127 108 88 83 56 59 65 74 63 43 39 88 5 245 273 68 339 360 26 349 3 343 78 358 316 3 328 339 4 14 339 321
166 159 155 146 133 132 127 121 115 99 88 76 99 83 83 81 74 93 96 88 78 61 53 315 339 58 31 54 44 330 12 333 315 351 3 306 21 319 345 336 48 331 319
156 149 145 147 147 131 129 116 111 89 97 95 107 123 140 162 104 101 94 117 69 76 40 18 17 50 43 21 360 190 312 303 279 180 43 272 352 318 332 306 87 334 334
129 128 143 127 110 136 149 136 113 128 116 144 187 203 194 164 118 38 62 42 218 136 134 75 48 51 14 337 315 319 305 345 292 147 99 326 316 319 303 288 146 239 289
128 135 113 98 161 161 166 167 177 119 171 187 167 140 158 359 99 167 319 322 294 55 78 301 210 186 199 156 285 271 335 270 306 294 87 337 355 4 322 308 290 276 317